Volver al catálogo

STARLINK-4150

ActivoComunicacionesVLEO
NORAD 53134·PAYLOAD·🇺🇸 United States

Lanzado Jul 17, 2022 desde Cape Canaveral Space Force Station

Loading…

Próximos Pases (próximas 24 horas)

TLE

ActualizadoSource: CelesTrak SupGP

Época: Sep 15, 2026, 01:29 UTC

1 53134C 22083C   26258.06229167 -.00032011  00000+0 -94599-3 0  2582
2 53134  53.1593  31.0319 0001161  80.7818 170.1693 15.34399417    16

Sigue STARLINK-4150 en tiempo real con AllMySat

Download on the App Store